www.pogodaiklimat.ru

Погода и климат >> Архив погоды >> Парагвай >> Педро-Хуан-Кабальеро


ПОГОДА в Педро-Хуан-Кабальеро

  • Прогноз погоды в Педро-Хуан-Кабальеро
  • Монитор погоды в Педро-Хуан-Кабальеро

АРХИВ ПОГОДЫ в Педро-Хуан-Кабальеро

Время (UTC), дата Ветер
(напр.,м/с)
 
Видим.   Явления Облачность Т
(С)
Тd
(С)
f
(%)
Тe
(С)
Тes
(С)
Комфортность P
(гПа)
Po
(гПа)
Тmin
(С)
Tmax
(С)
R
(мм)
R24
(мм)
S
(см)
12 10.07 В 6 20 км ясно +19.8 +10.8 56 +21 +22 комфорт 1020.6 954.9 +15.6
15 10.07 СВ 7 20 км 1/0
[Ci fib]
+26.0 +10.1 37 +27 +29 жарко 1020.5 954.8
18 10.07 СЗ 5 20 км ясно +28.6 +6.4 25 +28 +31 жарко 1017.9 952.4
21 10.07 штиль 0 20 км 5/0
[Cs]
+26.8 +13.8 45 +29 +29 жарко 1016.8 951.3
00 11.07 СЗ 3 20 км ясно +19.2 +11.4 61 +21 +21 комфорт 1017.7 952.2 +28.8
03 11.07 СВ 3 20 км ясно +18.8 +9.5 55 +20 +20 1017.3 951.8
09 11.07 СВ 5 20 км ясно +17.6 +8.7 56 +17 +17 1016.7 951.2
12 11.07 СВ 5 20 км ясно +20.8 +9.7 49 +22 +24 комфорт 1018.3 952.7 +17.4
15 11.07 С 6 20 км 8/0
[Cs]
+27.8 +8.0 29 +28 +31 жарко 1019.0 953.4
18 11.07 С 7 20 км 4/0
[Ac trans]
+28.8 +7.1 25 +28 +29 жарко 1014.7 949.4
21 11.07 СВ 3 20 км ясно +26.2 +11.7 40 +27 +27 жарко 1014.6 949.3
00 12.07 СВ 3 20 км ясно +20.4 +10.8 54 +23 +23 комфорт 1014.5 949.2 +29.4
03 12.07 СВ 3 20 км ясно +18.4 +13.9 75 +19 +19 1015.1 949.7
09 12.07 В 6 20 км ясно +18.8 +7.6 48 +19 +19 1015.3 949.9
12 12.07 СВ 5 20 км ясно +20.4 +7.6 44 +21 +23 комфорт 1017.2 951.7 +17.8
15 12.07 СВ 8 20 км 1/0
[Ac trans]
+26.4 +7.0 29 +26 +28 жарко 1018.1 952.5
18 12.07 СВ 5 20 км 5/0 2000 м
[Ac trans]
+28.4 +9.4 30 +28 +31 жарко 1015.3 949.9
21 12.07 С 4 20 км 3/0 2000 м
[Ac trans]
+27.2 +8.7 31 +27 +27 жарко 1014.9 949.5
00 13.07 СВ 3 20 км ясно +21.2 +11.5 54 +23 +23 комфорт 1015.8 950.4 +29.6
06 13.07 СВ 5 20 км 5/0
[Ac trans]
+20.2 +8.7 48 +21 +21 комфорт 1016.1 950.6
12 13.07 СВ 5 20 км 9/3 900 м
[Cu Sc Ac As]
+21.6 +8.8 44 +23 +23 комфорт 1017.1 951.6 +19.4
15 13.07 С 8 20 км 9/0 2000 м
[Ac trans]
+26.0 +9.5 35 +26 +27 жарко 1017.6 952.1
18 13.07 С 10 20 км 6/0
[Cs]
+30.0 +7.7 25 +29 +29 жарко 1014.1 948.8
21 13.07 С 8 20 км ясно +26.6 +9.1 33 +27 +27 жарко 1014.0 948.7
00 14.07 штиль 0 20 км 6/0
[Cs]
+20.0 +11.0 56 +21 +21 комфорт 1015.0 949.6 +30.4
03 14.07 С 5 20 км 6/0 2000 м
[Ac trans]
+20.0 +11.0 56 +21 +21 комфорт 1016.0 950.5
06 14.07 С 4 20 км 9/0 2000 м
[Ac trans]
+21.8 +9.2 45 +23 +23 комфорт 1015.5 950.1
09 14.07 С 4 20 км 5/0
[As trans Ci ing]
+21.4 +9.9 48 +23 +23 комфорт 1014.6 949.3
12 14.07 СВ 5 20 км 6/0
[Ac cast]
+23.8 +11.6 46 +25 +26 комфорт 1016.2 950.7 +19.8
15 14.07 С 9 20 км 6/0
[Ac cast]
+30.2 +5.1 20 +28 +29 жарко 1017.1 951.6
18 14.07 СЗ 9 20 км 8/5 800 м
[Cu Sc Ac cast]
+27.2 +8.2 30 +27 +27 жарко 1014.0 948.7
21 14.07 СЗ 5 20 км 8/5 800 м
[Cu Sc Ac cast]
+27.4 +13.0 41 +29 +29 жарко 1014.0 948.7
00 15.07 штиль 0 20 км 5/0
[Ac trans]
+21.2 +13.6 62 +24 +24 комфорт 1015.1 949.7 +31.0
03 15.07 штиль 0 20 км 6/0
[Ac trans]
+20.2 +13.1 64 +22 +22 комфорт 1016.1 950.6
09 15.07 штиль 0 20 км 6/0
[Ac trans]
+19.8 +12.9 64 +21 +21 комфорт 1014.0 948.7
12 15.07 ЮЗ 3 20 км 10/0 2000 м
[As op]
+19.6 +15.0 75 +22 +22 комфорт 1015.9 950.5 +19.2
15 15.07 ЮВ 3 5000 м дымка {дождь} 10/0 2000 м
[As op]
+17.8 +15.0 84 +18 +20 1017.8 952.3 0.0
18 15.07 ЮВ 5 3000 м слаб. дождь 10/5 150 м
[St As op]
+17.4 +16.6 95 +17 +17 1016.8 951.3 1
21 15.07 В 5 5000 м слаб. дождь 10/5 600 м
[Cu Sc As op]
+17.2 +16.7 97 +16 +16 1016.8 951.3 16
00 16.07 штиль 0 20 км 5/0
[Ac trans]
+21.2 +13.6 62 +24 +24 комфорт 1015.1 949.7 +31.0
03 16.07 Ю 2 <100 м туман ?/? +17.2 +16.9 98 +18 +18 1019.7 954.0 0.1
06 16.07 Ю 5 5000 м дымка {туман} 10/10 180 м
[St]
+15.6 +14.8 95 +14 +14 1019.2 953.5 0.2
09 16.07 ЮВ 5 20 км 5/0
[Cs]
+12.6 +11.6 94 +10 +10 1019.0 953.4
12 16.07 Ю 5 5000 м дымка 9/0
[Cs]
+12.4 +11.3 93 +10 +11 1021.1 955.4 +11.4 18
15 16.07 Ю 9 20 км 5/0
[Cs]
+17.4 +6.9 50 +16 +17 1022.4 956.6
18 16.07 Ю 6 20 км 1/0
[Ci fib]
+21.0 +4.6 34 +22 +24 комфорт 1020.0 954.3
21 16.07 Ю 4 20 км ясно +19.2 +7.3 46 +20 +20 1019.8 954.1
00 17.07 Ю 4 20 км ясно +12.6 +7.0 69 +11 +11 1020.8 955.1 +21.2
03 17.07 ЮВ 5 20 км ясно +10.6 +5.1 69 +8 +8 1021.5 955.7
06 17.07 ЮВ 5 20 км 5/0
[Cs]
+9.4 +6.1 80 +6 +6 1020.7 955.0
09 17.07 ЮВ 5 20 км 3/0
[Cs]
+9.0 +5.0 76 +6 +6 1020.6 954.9

 

Местоположение метеостанции Педро-Хуан-Кабальеро (Парагвай): широта -22.58 долгота -55.73 высота над уровнем моря 662 м.

В архиве по умолчанию представлена погода в Педро-Хуан-Кабальеро за последнюю неделю. Архивные данные за месяц целиком и за предыдущие месяцы, начиная с января 2011 года, Вы можете получить, выбрав интересующий диапазон дат из раскрывающегося списка и нажав кнопку "Ввод!".


*Определитесь, кто Вы:
робот инопланетянин человек

Внимание! Время в таблицах - всемирное. Для получения местного времени необходимо прибавить поправку, которая равна -4 ч.

Смотрите также архив погоды в соседних городах и на ближайших метеорологических станциях:

Погода в Понта-Пора (Мату-Гросу-ду-Сул, Бразилия) (6 км)
Погода в Понта-Поране (Мату-Гросу-ду-Сул, Бразилия) (21 км)
Погода в Амамбаи (Мату-Гросу-ду-Сул, Бразилия) (62 км)
Погода в Дорадусе (Мату-Гросу-ду-Сул, Бразилия) (93 км)
Погода в Бела-Виста (Мату-Гросу-ду-Сул, Бразилия) (99 км)
Погода в Жути (Мату-Гросу-ду-Сул, Бразилия) (120 км)
Погода в Маракажу (Мату-Гросу-ду-Сул, Бразилия) (121 км)
Погода в Жардиме (Мату-Гросу-ду-Сул, Бразилия) (129 км)
Погода в Рио-Брилханте (Мату-Гросу-ду-Сул, Бразилия) (152 км)
Погода в Сети-Кедасе (Мату-Гросу-ду-Сул, Бразилия) (171 км)

Пояснения к столбцам:

Ветер - указаны скорость ветра в м/с - средняя за 10 мин, порывы в срок и между сроками (в фигурных скобках) и направление, откуда дует ветер: С - северный, СВ - северо-восточный, В - восточный, ЮВ - юго-восточный, Ю - южный, ЮЗ - юго-западный, З - западный, СЗ - северо-западный.
Видимость - горизонтальная дальность видимости в метрах или километрах. При видимости от 1 до 10 км при отсутствии осадков обычно наблюдается дымка, при ухудшении видимости до 1 км и менее - туман. В сухую погоду видимость может ухудшаться дымом, пылью или мглою.
Явления - указаны атмосферные явления, наблюдавшиеся в срок или в последний час перед сроком; фигурными скобками обозначены явления, наблюдавшиеся между сроками (за 1-3 часа до срока); квадратными скобками обозначены град или гололедные отложения с указанием их диаметра в мм.
Облачность - указаны через наклонную черту общая и нижняя облачность в баллах и высота нижней границы облаков в метрах; квадратными скобками обозначены формы облаков: Ci - перистые, Cs - перисто-слоистые, Cc - перисто-кучевые, Ac - высококучевые, As - высокослоистые, Sc - слоисто-кучевые, Ns - слоисто-дождевые, Cu - кучевые, Cb - кучево-дождевые. Подробнее классификацию облаков см. в Атласе облаков (PDF).
T - Температура воздуха - температура, измеренная на высоте 2 м над землей.
Td - Температура точки росы - температура, при понижении до которой содержащийся в воздухе водяной пар достигнет насыщения.
f - Относительная влажность воздуха - влажноcть воздуха, измеренная на высоте 2 м над землей.
Te - Эффективная температура - температура, которую ощущает одетый по сезону человек в тени. Характеристика душности погоды. При расчете учитывается влияние влажности воздуха и скорости ветра на теплоощущения человека.
Tes - Эффективная температура на солнце - температура, которую ощущает человек, с поправкой на солнечный нагрев. Характеристика знойности погоды. Зависит от высоты солнца над горизонтом, облачности и скорости ветра. Ночью, в пасмурную погоду, а также при ветре 12 м/с и более поправка равна нулю.
P - Атмосферное давление - приведенное к уровню моря атмосферное давление.
Po - Атмосферное давление - измеренное на уровне метеостанции атмосферное давление.
Tmin - Минимальная температура - минимум температуры воздуха на высоте 2 м над землей.
Tmax - Максимальная температура - максимум температуры воздуха на высоте 2 м над землей.
R - Количество осадков - Количество выпавших осадков за период времени, мм. При наведении курсора мыши на число - период времени, за который выпало указанное количество осадков.
R24 - Количество осадков - Количество выпавших осадков за 24 часа, мм.
S - Снежный покров - Высота снежного покрова, см. При наведении курсора мыши на число - состояние снежного покрова и степень покрытия местности в баллах.